Starlink 6130

operational
NORAD ID: 57104 Int'l Des: 2023-090 Owner: SPXS Country: US Constellation: starlink
LEOCIRCULAR

Starlink 6130について

説明を読み込み中...

リアルタイム位置

3D地球を読み込み中...

次回通過

高度履歴

Altitude vs Time

uPlot chart will show altitude changes over time

軌道要素

1 57104U 23090D 25350.08848469 .00002034 00000-0 16559-3 0 9991
2 57104 43.0050 9.2611 0001255 266.5704 93.4995 15.02532715137835
Epoch: Dec 16, 2025 • Age: 26 hours

現在のステータス

高度 558.3 km
速度 7.59 km/s
衛星直下点 12.66°N, 124.71°W
打ち上げ日 Jun 23, 2023
運用期間 2.4 years
タイプ internet

技術仕様

分類 Payload
質量 305.00 kg
乾燥質量 290.00 kg
総質量 305.00 kg
長さ 0.20 m
直径 2.80 m
スパン 9.00 m
形状 Box + pan
製造者 SPXS
バスタイプ Starlink
フェーズステータス In Orbit
所有者/国 SPXS/US

大規模コンステレーション

Loading constellations...